Home   Weather   Alexandria   Past weeks
Flag for Egypt

Past Weather in Alexandria, Egypt — Yesterday and Last 2 Weeks

Now
63 °F

Sunny.


Feels Like: 63 °F
Forecast: 65 / 60 °F
Wind: 13 mph from North

Location: Alexandria / Nouzha

Current Time: Mar 24, 2019 at 8:03:20 am

Latest Report: Mar 24, 2019 at 7:00 am


Visibility: 10 mi

Pressure: 29.74 "Hg

Humidity: 77%

Dew Point: 55 °F

Location of AlexandriaLocation

Past Weather in Alexandria — Graph

°F

Alexandria Temperature Yesterday

Maximum temperature yesterday: 73 °F (at 3:00 pm)
Minimum temperature yesterday: 61 °F (at 1:00 am)
Average temperature yesterday: 65 °F

High & Low Weather Summary for the Past Weeks

 TemperatureHumidityPressure
High75 °F (Mar 22, 1:00 pm)100% (Mar 12, 5:20 am)30.33 "Hg (Mar 12, 5:20 am)
Low46 °F (Mar 12, 5:00 am)33% (Mar 15, 12:00 pm)29.71 "Hg (Mar 24, 6:00 am)
Average61 °F72%30.02 "Hg
* Reported Mar 9 6:00 am — Mar 24 6:00 am, Alexandria. Weather by CustomWeather, © 2019

Note: Actual official high and low records may vary slightly from our data, if they occured in-between our weather recording intervals... More about our weather records

Advertising

Alexandria Weather History for the Previous 24 Hours

Scroll right to see more
 ConditionsComfort  
Time TempWeatherWind HumidityBarometerVisibility
6:00 am
Sun, Mar 24
61 °FSunny.9 mph83%29.71 "Hg10 mi
5:00 am61 °FClear.14 mph77%29.74 "Hg10 mi
4:00 am61 °FClear.10 mph83%29.74 "Hg10 mi
3:00 am63 °FClear.9 mph77%29.74 "Hg10 mi
2:00 am63 °FPassing clouds.10 mph77%29.74 "HgN/A
1:00 am61 °FPassing clouds.13 mph83%29.77 "HgN/A
12:00 am61 °FPassing clouds.14 mph83%29.77 "HgN/A
10:00 pm
Sat, Mar 23
63 °FPassing clouds.15 mph68%29.77 "HgN/A
9:00 pm63 °FPassing clouds.15 mph73%29.77 "HgN/A
8:00 pm63 °FPassing clouds.15 mph77%29.77 "HgN/A
7:00 pm64 °FPassing clouds.10 mph60%29.77 "HgN/A
6:00 pm66 °FScattered clouds.14 mph60%29.77 "HgN/A
5:00 pm70 °FScattered clouds.10 mph60%29.80 "HgN/A
4:00 pm73 °FScattered clouds.14 mph57%29.80 "HgN/A
3:00 pm73 °FScattered clouds.14 mph57%29.80 "HgN/A
1:00 pm72 °FScattered clouds.9 mph53%29.86 "HgN/A
12:00 pm72 °FScattered clouds.8 mph57%29.86 "HgN/A
11:00 am68 °FScattered clouds.8 mph69%29.89 "HgN/A
10:00 am64 °FScattered clouds.12 mph78%29.89 "Hg4 mi
9:00 am64 °FScattered clouds.7 mph78%29.92 "Hg4 mi
8:00 am63 °FScattered clouds.6 mph83%29.92 "Hg4 mi
Weather by CustomWeather, © 2019

See weather overview